Weather reports worldwide

Advertisment
Fürstenzell, Germany (10895): temperature & dewpoint: 19.09.2020 02:00:00 - 25.09.2020 02:00:00 (CEST)Fürstenzell, Germany (10895): temperature 5cm & temperature -5cm: 19.09.2020 02:00:00 - 25.09.2020 02:00:00 (CEST)Fürstenzell, Germany (10895): temperature -20cm & temperature -100cm: 19.09.2020 02:00:00 - 25.09.2020 02:00:00 (CEST)Fürstenzell, Germany (10895): wind speed & gusts: 19.09.2020 02:00:00 - 25.09.2020 02:00:00 (CEST)Fürstenzell, Germany (10895): wind direction: 19.09.2020 02:00:00 - 25.09.2020 02:00:00 (CEST)Fürstenzell, Germany (10895): reduced air pressure: 19.09.2020 02:00:00 - 25.09.2020 02:00:00 (CEST)Fürstenzell, Germany (10895): visibility: 19.09.2020 02:00:00 - 25.09.2020 02:00:00 (CEST)Fürstenzell, Germany (10895): sunshine duration: 19.09.2020 02:00:00 - 25.09.2020 02:00:00 (CEST)Fürstenzell, Germany (10895): precipitation: 19.09.2020 02:00:00 - 25.09.2020 02:00:00 (CEST)
Date & Time tt [°C] td [°C] tt 5cm [°C] tt -5cm [°C] tt -20cm [°C] tt -100cm [°C] ff [km/h] ff [kn] fx [km/h] fx [kn] dd ppp [hPa] vv [km] sd [min] rr [mm]
25.09.2020 02:00:00 14,6 12,5 14,2 15,7 17,8 18,3 16 9 27 15 SW 1001,5 38 0 0,0
25.09.2020 01:00:00 16,2 11,5 15,2 15,8 18,0 18,3 8 4 21 12 SSE 1000,6 71 0 0,0
25.09.2020 00:00:00 16,4 11,7 14,9 15,9 18,3 18,3 11 6 17 9 ESE 1001,4 75 0 0,0
24.09.2020 23:00:00 14,9 12,8 13,5 16,1 18,5 18,3 9 5 17 9 NE 1002,8 47 0 0,0
24.09.2020 22:00:00 14,8 13,0 13,1 16,6 18,8 18,3 12 6 14 7 NE 1003,7 47 0 0,0
24.09.2020 21:00:00 15,4 13,6 13,6 17,3 19,0 18,3 8 4 16 8 ENE 1005,0 53 0 0,0
24.09.2020 20:00:00 16,8 13,7 15,1 18,1 19,1 18,3 8 4 15 8 NE 1005,4 49 0 0,0
24.09.2020 19:00:00 17,4 13,6 16,1 19,4 19,2 18,3 8 4 13 7 E 1006,1 59 36 0,0
24.09.2020 18:00:00 18,6 13,7 18,4 20,4 19,1 18,3 10 5 15 8 ENE 1006,7 58 29 0,0
24.09.2020 17:00:00 19,1 12,9 19,4 21,2 18,8 18,3 9 5 15 8 E 1007,5 51 56 0,0
24.09.2020 16:00:00 19,7 13,8 21,5 21,8 18,5 18,3 4 2 10 5 NNE 1008,2 49 35 0,0
24.09.2020 15:00:00 18,8 13,5 20,8 21,6 18,1 18,3 4 2 12 7 SSW 1009,2 50 17 0,0
24.09.2020 14:00:00 18,2 14,1 19,8 21,0 17,8 18,3 5 3 13 7 SSW 1009,6 42 9 0,0
24.09.2020 13:00:00 17,4 14,0 18,7 20,2 17,5 18,4 6 4 15 8 SSW 1010,2 28 18 0,0
24.09.2020 12:00:00 15,8 13,9 16,5 18,6 17,3 18,4 3 2 8 4 SSE 1010,5 24 0 0,0
24.09.2020 11:00:00 14,8 13,4 15,5 18,0 17,1 18,4 5 3 13 7 SSW 1010,9 15 3 0,1
24.09.2020 10:00:00 14,7 14,2 16,4 17,3 17,0 18,4 4 2 12 6 S 1010,2 2,8 53 0,0
24.09.2020 09:00:00 13,7 13,4 14,6 15,7 17,0 18,4 4 2 10 6 SE 1009,9 0,9 17 0,0
24.09.2020 08:00:00 12,5 12,5 12,8 15,2 17,1 18,4 5 3 9 5 NE 1009,7 0,1 0 0,0
24.09.2020 07:00:00 12,8 12,8 12,9 15,1 17,2 18,4 7 4 10 6 ENE 1009,4 0,1 0 0,1
24.09.2020 06:00:00 12,5 12,5 12,3 15,2 17,3 18,4 4 2 11 6 E 1009,4 0,1 0 0,1
24.09.2020 05:00:00 13,0 12,9 13,1 15,4 17,4 18,4 5 3 9 5 SSW 1009,2 0,1 0 0,0
24.09.2020 04:00:00 13,1 13,0 13,0 15,7 17,5 18,4 3 2 10 6 S 1009,0 0,1 0 0,0
24.09.2020 03:00:00 13,8 13,6 13,9 15,9 17,6 18,4 3 2 9 5 S 1008,8 0,1 0 0,0
24.09.2020 02:00:00 14,4 14,2 14,5 15,9 17,7 18,4 3 1 7 4 SSE 1008,8 0,1 0 0,0
24.09.2020 01:00:00 14,0 13,7 13,8 15,8 17,8 18,4 3 2 5 3 E 1009,1 0,1 0 0,1
24.09.2020 00:00:00 14,4 14,2 14,2 15,8 18,0 18,4 2 1 8 5 S 1009,1 0,1 0 0,0
23.09.2020 23:00:00 14,2 13,6 12,3 15,9 18,2 18,4 4 2 7 4 E 1009,3 3,6 0 0,0
23.09.2020 22:00:00 14,6 14,1 13,0 16,7 18,3 18,4 4 2 6 3 S 1009,1 4,9 0 0,0
23.09.2020 21:00:00 15,0 13,7 14,5 17,1 18,4 18,4 3 1 4 2 SSE 1009,0 42 0 0,0
23.09.2020 20:00:00 15,1 14,3 14,9 17,4 18,5 18,4 0 0 4 2 N 1008,7 18 0 0,0
23.09.2020 19:00:00 15,3 14,7 15,2 17,8 18,5 18,4 3 2 6 3 SW 1008,5 7 0 0,0
23.09.2020 18:00:00 15,3 14,5 15,3 18,1 18,5 18,4 4 2 15 8 SSW 1008,5 9 0 0,0
23.09.2020 17:00:00 15,6 14,7 15,7 18,6 18,4 18,4 12 7 18 10 WNW 1008,4 6 0 0,0
23.09.2020 16:00:00 16,4 14,9 16,8 18,7 18,3 18,4 4 2 9 5 SW 1008,3 16 0 0,0
23.09.2020 15:00:00 16,2 15,0 16,4 18,3 18,3 18,4 3 2 6 4 NNW 1008,7 20 0 0,0
23.09.2020 14:00:00 15,7 14,7 16,2 17,9 18,3 18,4 5 3 12 6 WSW 1009,0 13 0 0,2
23.09.2020 13:00:00 15,2 14,2 15,3 17,5 18,3 18,4 9 5 19 10 W 1009,4 18 0 1,6
23.09.2020 12:00:00 14,9 14,3 15,0 17,3 18,3 18,4 10 6 31 17 W 1009,3 8 0 3,3
23.09.2020 11:00:00 15,2 13,9 15,4 17,7 18,3 18,4 13 7 29 16 W 1009,1 32 1 0,0
23.09.2020 10:00:00 15,6 13,8 16,5 17,5 18,3 18,4 15 8 25 13 W 1008,7 21 0 0,0
23.09.2020 09:00:00 14,6 13,6 15,1 17,1 18,4 18,4 13 7 21 11 WNW 1008,6 8 2 0,0
23.09.2020 08:00:00 13,0 13,0 13,4 16,3 18,5 18,4 2 1 10 6 SW 1008,5 0,1 0 0,0
23.09.2020 07:00:00 12,7 12,4 12,6 16,0 18,7 18,4 3 1 9 5 SSW 1008,4 0,1 0 0,0
23.09.2020 06:00:00 13,9 13,3 13,0 16,3 19,0 18,4 4 2 10 5 S 1008,1 3,1 0 0,0
23.09.2020 05:00:00 12,8 12,2 12,3 16,4 19,2 18,4 5 3 7 4 SW 1008,4 0,8 0 0,0
23.09.2020 04:00:00 14,1 13,0 12,5 16,8 19,5 18,4 6 3 8 4 ENE 1008,1 15 0 0,0
23.09.2020 03:00:00 14,8 12,4 13,4 17,1 19,8 18,4 6 3 8 4 NNE 1008,1 31 0 0,0
23.09.2020 02:00:00 15,0 13,3 12,9 17,5 20,1 18,4 6 3 9 5 NNE 1008,2 19 0 0,0
23.09.2020 01:00:00 14,9 13,6 13,5 18,1 20,4 18,4 9 5 10 6 NE 1008,4 16 0 0,0
23.09.2020 00:00:00 15,8 13,9 14,6 18,6 20,7 18,4 10 5 14 7 NE 1008,7 22 0 0,0
22.09.2020 23:00:00 16,6 13,9 15,6 19,2 21,0 18,4 10 5 12 7 NNE 1008,7 25 0 0,0
22.09.2020 22:00:00 17,6 14,4 16,3 19,9 21,3 18,4 9 5 10 5 NNE 1008,7 29 0 0,0
22.09.2020 21:00:00 19,3 13,8 14,7 20,7 21,5 18,4 4 2 6 3 ENE 1008,7 33 0 0,0
22.09.2020 20:00:00 19,4 13,8 15,1 21,9 21,7 18,4 4 2 7 4 WSW 1008,9 29 0 0,0
22.09.2020 19:00:00 20,9 14,3 17,3 23,4 21,6 18,4 3 2 7 4 SSW 1008,9 38 40 0,0
22.09.2020 18:00:00 23,1 14,0 25,4 24,7 21,4 18,4 4 2 9 5 E 1008,6 59 60 0,0
22.09.2020 17:00:00 23,6 13,7 25,7 26,0 21,0 18,4 3 2 11 6 NE 1009,3 40 59 0,0
22.09.2020 16:00:00 18,4 8,3 26,7 27,1 20,4 18,4 4 2 17 9 S 1011,4 68 60 0,0
22.09.2020 15:00:00 23,3 12,0 27,0 27,3 19,8 18,4 4 2 14 8 SSW 1010,8 62 60 0,0
22.09.2020 14:00:00 23,2 14,0 26,0 26,4 19,1 18,4 4 2 11 6 NE 1011,3 40 60 0,0
22.09.2020 13:00:00 21,0 13,8 24,0 24,6 18,4 18,4 3 2 14 8 SE 1012,5 22 60 0,0
22.09.2020 12:00:00 20,0 13,7 22,8 22,6 17,9 18,4 5 3 13 7 SSE 1012,9 23 60 0,0
22.09.2020 11:00:00 18,2 13,5 20,2 20,2 17,6 18,4 4 2 10 6 SE 1013,6 19 60 0,0
22.09.2020 10:00:00 16,0 12,8 17,6 18,1 17,4 18,4 6 3 10 5 ENE 1014,2 19 60 0,0
22.09.2020 09:00:00 15,3 13,1 15,3 16,3 17,5 18,4 4 2 8 4 ESE 1014,2 10 59 0,0
22.09.2020 08:00:00 12,2 11,4 12,5 14,9 17,7 18,4 4 2 7 4 NE 1014,9 1,6 23 0,0
22.09.2020 07:00:00 11,7 11,1 10,4 14,7 17,9 18,4 4 2 6 3 NE 1014,8 4,3 0 0,0
22.09.2020 06:00:00 12,1 11,4 10,7 15,1 18,1 18,4 5 3 10 6 NE 1014,7 7 0 0,0
22.09.2020 05:00:00 11,8 11,3 11,0 15,2 18,4 18,4 8 5 13 7 NE 1014,8 4,3 0 0,0
22.09.2020 04:00:00 12,2 11,6 11,3 15,5 18,6 18,4 11 6 12 6 NE 1014,7 2,8 0 0,0
22.09.2020 03:00:00 13,0 12,1 11,4 15,9 18,9 18,4 8 4 11 6 NE 1014,8 11 0 0,0
22.09.2020 02:00:00 12,8 12,1 11,8 16,3 19,2 18,5 10 5 13 7 NE 1014,9 8 0 0,0
22.09.2020 01:00:00 13,4 12,4 11,9 16,8 19,5 18,5 9 5 10 6 NE 1015,0 11 0 0,0
22.09.2020 00:00:00 14,5 12,8 11,8 17,3 19,8 18,5 7 4 9 5 NE 1015,2 22 0 0,0
21.09.2020 23:00:00 15,2 13,1 12,4 17,9 20,1 18,5 5 3 8 4 NE 1015,4 28 0 0,0
21.09.2020 22:00:00 16,7 12,9 12,2 18,7 20,4 18,5 4 2 12 7 ENE 1015,2 33 0 0,0
21.09.2020 21:00:00 17,6 12,8 13,5 19,6 20,7 18,5 6 3 11 6 SSE 1015,0 40 0 0,0
21.09.2020 20:00:00 17,3 12,6 13,2 20,8 20,9 18,5 3 2 4 2 SSE 1014,9 38 0 0,0
21.09.2020 19:00:00 19,3 13,0 16,0 22,3 20,8 18,5 4 2 9 5 SW 1014,3 32 53 0,0
21.09.2020 18:00:00 21,0 12,8 22,3 23,7 20,6 18,5 3 1 11 6 S 1014,1 41 60 0,0
21.09.2020 17:00:00 21,7 12,0 25,1 25,0 20,2 18,5 3 1 9 5 SE 1014,1 28 60 0,0
21.09.2020 16:00:00 21,6 12,0 24,3 26,2 19,6 18,5 5 3 11 6 W 1014,5 49 60 0,0
21.09.2020 15:00:00 21,5 12,2 25,4 26,2 18,9 18,5 5 3 12 6 SW 1014,7 37 60 0,0
21.09.2020 14:00:00 20,7 11,6 24,4 25,3 18,1 18,5 6 3 12 7 NE 1015,3 75 60 0,0
21.09.2020 13:00:00 20,7 11,9 22,7 23,5 17,5 18,5 4 2 13 7 S 1015,6 52 60 0,0
21.09.2020 12:00:00 17,7 10,5 20,7 21,1 16,9 18,5 6 3 11 6 WSW 1016,2 36 60 0,0
21.09.2020 11:00:00 17,2 10,5 18,6 18,5 16,6 18,5 4 2 8 4 S 1016,4 45 60 0,0
21.09.2020 10:00:00 14,0 10,0 14,9 16,0 16,6 18,5 6 3 10 5 ENE 1017,0 58 60 0,0
21.09.2020 09:00:00 11,9 9,4 12,6 14,1 16,7 18,5 6 4 9 5 NE 1017,3 32 59 0,0
21.09.2020 08:00:00 10,0 8,6 9,5 13,0 17,0 18,6 7 4 9 5 NE 1017,5 27 38 0,0
21.09.2020 07:00:00 8,8 8,1 6,7 13,1 17,2 18,6 3 2 7 4 E 1017,3 25 0 0,0
21.09.2020 06:00:00 9,4 8,6 8,0 13,5 17,5 18,6 6 4 8 4 NE 1017,0 20 0 0,0
21.09.2020 05:00:00 10,1 8,5 8,0 13,9 17,8 18,6 6 3 9 5 NE 1016,8 38 0 0,0
21.09.2020 04:00:00 11,0 8,4 8,3 14,4 18,1 18,6 7 4 11 6 ENE 1016,5 54 0 0,0
21.09.2020 03:00:00 11,2 8,3 9,1 14,8 18,4 18,6 8 4 11 6 NE 1016,8 45 0 0,0
21.09.2020 02:00:00 11,4 8,8 9,4 15,3 18,8 18,6 9 5 14 8 NE 1016,6 66 0 0,0
21.09.2020 01:00:00 12,4 9,0 11,0 15,9 19,1 18,6 10 5 12 7 NNE 1016,1 54 0 0,0
21.09.2020 00:00:00 12,7 9,9 11,1 16,5 19,4 18,6 10 5 13 7 NE 1016,3 57 0 0,0
20.09.2020 23:00:00 13,3 10,4 11,3 17,3 19,8 18,6 11 6 16 8 NE 1015,9 50 0 0,0
20.09.2020 22:00:00 14,5 10,6 11,5 18,1 20,1 18,6 10 5 14 8 NE 1015,9 50 0 0,0
20.09.2020 21:00:00 15,5 10,4 12,5 19,1 20,3 18,6 9 5 14 8 ENE 1015,7 63 0 0,0
20.09.2020 20:00:00 17,2 11,5 14,8 20,3 20,5 18,7 10 5 15 8 E 1014,8 65 0 0,0
20.09.2020 19:00:00 19,0 12,1 16,2 21,8 20,4 18,7 3 1 8 4 SSE 1013,8 54 59 0,0
20.09.2020 18:00:00 20,9 11,8 22,5 23,1 20,2 18,7 3 2 11 6 S 1013,4 51 60 0,0
20.09.2020 17:00:00 21,3 12,0 23,4 24,4 19,7 18,7 4 2 14 8 SSE 1013,4 37 60 0,0
20.09.2020 16:00:00 21,0 11,7 24,6 25,7 19,1 18,7 7 4 15 8 SE 1013,6 50 60 0,0
20.09.2020 15:00:00 20,6 11,3 24,6 25,6 18,4 18,7 4 2 13 7 SSW 1014,0 62 60 0,0
20.09.2020 14:00:00 19,6 10,6 23,1 24,6 17,6 18,7 6 3 11 6 SE 1014,6 30 60 0,0
20.09.2020 13:00:00 18,6 10,4 21,9 22,8 17,0 18,7 5 3 13 7 ESE 1014,9 50 60 0,0
20.09.2020 12:00:00 17,4 9,6 20,5 20,4 16,4 18,7 3 2 12 6 S 1015,4 75 60 0,0
20.09.2020 11:00:00 15,5 8,6 16,7 17,6 16,2 18,7 4 2 11 6 NE 1016,2 75 59 0,0
20.09.2020 10:00:00 12,6 8,9 13,7 15,1 16,1 18,7 8 4 10 5 ENE 1016,7 46 60 0,0
20.09.2020 09:00:00 10,8 8,7 10,7 13,2 16,2 18,7 4 2 8 4 NE 1017,1 28 60 0,0
20.09.2020 08:00:00 8,6 7,6 8,3 12,1 16,5 18,7 7 4 10 5 NE 1017,5 18 45 0,0
20.09.2020 07:00:00 7,4 6,9 6,5 12,2 16,8 18,7 8 5 9 5 NE 1017,4 1,5 0 0,0
20.09.2020 06:00:00 8,3 7,6 5,4 12,6 17,1 18,8 3 2 5 3 NNE 1017,4 24 0 0,0
20.09.2020 05:00:00 8,6 7,6 6,7 13,0 17,4 18,8 6 3 9 5 NE 1017,5 23 0 0,0
20.09.2020 04:00:00 8,8 7,7 6,8 13,5 17,7 18,8 7 4 11 6 NE 1017,6 29 0 0,0
20.09.2020 03:00:00 9,9 8,4 7,1 14,0 18,0 18,8 7 4 10 6 NE 1017,7 35 0 0,0
20.09.2020 02:00:00 10,7 8,3 8,7 14,5 18,3 18,8 8 5 10 5 NNE 1017,9 45 0 0,0
20.09.2020 01:00:00 11,1 8,9 8,4 15,1 18,7 18,8 9 5 11 6 NE 1018,2 38 0 0,0
20.09.2020 00:00:00 11,4 9,1 9,2 15,7 19,0 18,8 10 5 16 9 NE 1018,2 47 0 0,0
19.09.2020 23:00:00 12,4 9,6 10,3 16,4 19,3 18,8 10 6 14 8 NE 1018,1 40 0 0,0
19.09.2020 22:00:00 13,2 9,4 10,5 17,2 19,6 18,8 10 6 16 9 NE 1018,2 59 0 0,0
19.09.2020 21:00:00 15,1 9,1 13,1 18,2 19,9 18,8 11 6 16 9 E 1017,9 56 0 0,0
19.09.2020 20:00:00 16,0 9,0 13,7 19,3 20,0 18,8 10 6 21 11 E 1017,6 57 0 0,0
19.09.2020 19:00:00 17,4 9,2 16,0 20,9 19,9 18,8 13 7 20 11 E 1017,2 75 58 0,0
19.09.2020 18:00:00 19,1 9,7 20,7 22,3 19,7 18,8 12 7 19 10 E 1016,7 75 60 0,0
19.09.2020 17:00:00 19,7 9,4 22,8 23,5 19,2 18,9 8 5 17 9 SE 1016,8 49 60 0,0
19.09.2020 16:00:00 19,4 8,3 23,5 24,1 18,7 18,9 4 2 16 9 S 1017,4 60 60 0,0
19.09.2020 15:00:00 18,8 8,9 21,5 23,4 18,1 18,9 6 4 14 8 SW 1018,0 45 60 0,0
19.09.2020 14:00:00 17,2 8,5 20,0 22,3 17,5 18,9 4 2 12 6 SSE 1018,7 50 60 0,0
19.09.2020 13:00:00 16,5 7,6 19,7 21,5 16,9 18,9 5 3 11 6 S 1019,3 75 60 0,0
19.09.2020 12:00:00 16,0 7,8 19,1 19,7 16,5 18,9 4 2 10 6 ESE 1019,7 55 60 0,0
19.09.2020 11:00:00 14,7 8,0 17,0 17,2 16,2 18,9 3 2 9 5 S 1020,5 75 60 0,0
19.09.2020 10:00:00 11,0 5,7 12,7 14,6 16,2 18,9 4 2 10 5 SW 1021,5 71 60 0,0
19.09.2020 09:00:00 9,1 4,4 9,8 12,6 16,3 18,9 5 3 16 9 S 1021,8 62 60 0,0
19.09.2020 08:00:00 8,3 3,9 8,4 11,7 16,6 18,9 5 3 18 10 SSE 1021,7 70 47 0,0
19.09.2020 07:00:00 7,4 3,5 5,7 11,9 16,9 18,9 6 3 10 6 SSW 1021,9 67 0 0,0
19.09.2020 06:00:00 8,7 3,3 6,7 12,3 17,2 18,9 6 3 10 5 S 1021,9 75 0 0,0
19.09.2020 05:00:00 8,9 2,8 5,2 12,7 17,5 18,9 6 4 14 8 E 1022,3 69 0 0,0
19.09.2020 04:00:00 9,1 3,8 7,0 13,1 17,8 18,9 11 6 18 10 E 1022,7 24 0 0,0
19.09.2020 03:00:00 9,7 3,8 7,6 13,5 18,2 18,9 14 7 22 12 ENE 1023,3 75 0 0,0
19.09.2020 02:00:00 11,4 3,3 9,7 13,9 18,6 18,9 14 8 21 11 E 1023,4 75 0 0,0

tt = temperature
td = dewpoint
tt 5cm = temperature 5cm
tt -5cm = temperature -5cm
tt -20cm = temperature -20cm
tt -100cm = temperature -100cm
ff = wind speed
fx = gusts
dd = wind direction
ppp = reduced air pressure
vv = visibility
sd = sunshine duration
rr = precipitation

Next stations